Regional Weather Roundup
Issued by NWS Grand Forks, ND

Home | Current Version | Previous Version | Text Only | Print | Product List | Glossary On
Versions: 1 2 3 4 5 6 7 8 9 10 11 12 13 14 15 16 17 18 19 20 21 22 23 24 25 26 27 28 29 30 31 32 33 34 35 36 37 38 39 40 41 42 43 44 45 46 47 48 49 50
000
ASUS43 KFGF 020931
RWRFGF
PRAIRIE TO PINES  WEATHER ROUNDUP
NATIONAL WEATHER SERVICE EASTERN NORTH DAKOTA/GRAND FORKS ND
400 AM CDT WED SEP 02 2015

 **SATELLITE DATA USED TO AUGMENT SKY COVER AT AUTOMATED STATIONS**
 *****  WEATHER ACROSS EASTERN NORTH DAKOTA  *****

CITY           SKY/WX    TMP DP  RH WIND       PRES   REMARKS
GRAND FORKS    CLEAR     64  60  87 SE6       29.81S
GRAND FRKS AFB CLEAR     63  60  90 SE5       29.81S
GRAND FRKS NWS   N/A     64 N/A N/A SE6         N/A
DEVILS LAKE    CLEAR     68  61  77 SE6       29.80S
FARGO          CLEAR     71  68  90 SE7       29.83S
WAHPETON ARPT  SUNNY     64  63  94 SE6       29.85S
$$

 ***** WEATHER ACROSS CENTRAL AND WESTERN NORTH DAKOTA  *****

CITY           SKY/WX    TMP DP  RH WIND       PRES   REMARKS
BISMARCK       CLEAR     65  63  93 E6        29.79R
MINOT          CLEAR     61  59  93 CALM      29.76F
JAMESTOWN      CLEAR     65  62  90 SE6       29.82R
MINOT AFB      CLEAR     60  60  99 CALM      29.76S
GARRISON         N/A     60  58  92 NE3       29.78S
WILLISTON      CLEAR     60  45  57 N8        29.77F
DICKINSON      CLEAR     58  53  84 SW3       29.80S
HETTINGER      CLEAR     50  46  86 W3        29.84R
$$

 *****  OTHER AIRPORT OBSERVATIONS IN OUR AREA  *****

CITY           SKY/WX    TMP DP  RH WIND       PRES   REMARKS
WALHALLA       NOT AVBL
GRAFTON AIRPOR FAIR      63  63 100 CALM      29.82R
VALLEY CITY AR FAIR      63  63 100 S6        29.83S FOG
CANDO          FAIR      64  63  94 SE7       29.80S
CAVALIER APRT  FAIR      61  57  88 S6        29.80S
GWINNER          N/A     64  64 100 SE5       29.83S
SHEYENNE NWR     N/A     67  65  94 S5        29.95S
ROLLA          PTSUNNY   61  61 100 SW7       29.81S
 ***** THE ABOVE OBSERVATIONS ARE NON NWS ARE NOT QUALITY
       CONTROLLED AND MAY MIS-REPORT RAIN FOR SNOW...
$$

  *****  WEATHER ACROSS NORTHERN MINNESOTA  *****

CITY           SKY/WX    TMP DP  RH WIND       PRES   REMARKS
FLAG ISLAND    CLEAR     66  63  88 SE5       29.87S
WARROAD        CLEAR     61  57  88 CALM      29.88R
ROSEAU         CLEAR     63  55  77 S3        29.85F
HALLOCK        CLEAR     66  61  82 SE7       29.81S
THF RVR FALLS  CLEAR     63  61  94 SE5       29.86R
BAUDETTE       CLEAR     58  54  86 SE3       29.88S
WASKISH        CLEAR     63  57  82 SE5       29.89S
CROOKSTON      CLEAR     64  63  94 SE7       29.84S
STEPHEN NDAWN    N/A     66  64  94 SE7         N/A
GREENBUSH NDAW   N/A    N/A N/A N/A SE3         N/A
$$
  *****  WEATHER ACROSS CENTRAL AND WEST MINNESOTA  *****

CITY           SKY/WX    TMP DP  RH WIND       PRES   REMARKS
FOSSTON        CLEAR     66  61  82 SE6       29.87S
BEMIDJI        CLEAR     62  61  95 SE3       29.90S
PARK RAPIDS    FOG       67  65  93 CALM      29.90S VSB 1/4
ELBOW LAKE     FAIR      65  62  91 SE9       29.86S
WADENA         PTCLDY    66  64  94 CALM      29.89S FOG
DETROIT LAKES  PTCLDY    70  68  94 S6        29.89S FOG
MOORHEAD       CLEAR     70  66  88 S8        29.85R
FERGUS FALLS   CLEAR     66  66 100 SE7       29.86S
MORRIS MN      PTCLDY    64  63  94 SE10      29.86F
STAPLES        CLOUDY    66  66 100 CALM      29.90S FOG
$$
  *****  WEATHER ELSEWHERE ACROSS MINNESOTA  *****

CITY           SKY/WX    TMP DP  RH WIND       PRES   REMARKS
DULUTH         CLOUDY    70  67  90 SE7       29.94R FOG
INTRNTL FALLS  CLEAR     53  51  93 SE5       29.91S
ELY            PTCLDY    52  50  93 CALM      29.95S
CLOQUET        CLOUDY    70  68  94 CALM      29.93S FOG
WHEATON        CLEAR     61  59  94 E3        29.87R
BRAINERD       CLOUDY    72  68  87 CALM      29.91S
HIBBING        MOCLDY    62  59  90 CALM      29.94R
ALEXANDRIA     MOCLDY    68  64  87 S6        29.91S
SAINT CLOUD    CLOUDY    73  72  96 S13       29.91R
MINNEAPOLIS    LGT RAIN  71  68  90 W6        29.93S FOG
$$

  *****  WEATHER ACROSS SOUTH DAKOTA  *****

CITY           SKY/WX    TMP DP  RH WIND       PRES   REMARKS
SIOUX FALLS    CLEAR     70  66  87 S7        29.84S
BROOKINGS      CLEAR     64  61  88 E8        29.87S
WATERTOWN      CLEAR     65  61  87 SE7       29.85F
HURON          CLEAR     69  68  96 SE10      29.79F FOG
SISSETON         N/A     64  62  93 S5        29.83F
ABERDEEN       CLEAR     66  64  93 SE7       29.80F
MITCHELL       CLEAR     67  67 100 SE6       29.81S FOG
PIERRE         FOG       61  61 100 NE5       29.77R VSB 1/4
MOBRIDGE       CLEAR     66  66 100 E8        29.77S
RAPID CITY     CLEAR     59  50  72 N5        29.84F
$$

  *****  SOME WEATHER IN NEARBY STATES *****

CITY           SKY/WX    TMP DP  RH WIND       PRES   REMARKS
GLASGOW MT     CLEAR     61  40  45 E14       29.73F
GREAT FALLS MT MOCLDY    54  33  45 SW8       29.73F
CHEYENNE WY    PTCLDY    65  40  39 W13       30.11F
SCOTTSBLUFF NE PTCLDY    58  51  78 N5        29.96F
OMAHA NE       MOCLDY    76  68  76 SE14      29.90R
DES MOINES IA  TSTM      74  68  81 SW14      29.98R
DAVENPORT IA   CLEAR     71  68  90 S5        30.02S
CHICAGO IL     PTCLDY    73  69  87 W3        30.02S
EAU CLAIRE WI  CLOUDY    73  71  93 SW5       29.93S
LA CROSSE WI   PTCLDY    75  71  87 SE6       29.95R
$$

  *****  SOME NATIONAL WEATHER *****

CITY           SKY/WX    TMP DP  RH WIND       PRES   REMARKS
LA GUARDIA NY  CLEAR     76  66  71 CALM      30.01F
RALEIGH NC     PTCLDY    70  68  93 CALM      30.07R
ATLANTA GA     PTCLDY    73  68  84 CALM      30.11S
NEW ORLEANS LA CLOUDY    80  71  74 CALM      30.03R
OKLAHOMA CITY  PTCLDY    69  64  84 S7        30.03S
ALBUQUERQUE NM PTCLDY    70  44  39 S3        30.19R
SALT LAKE CITY MOCLDY    79  40  24 S25G32    29.93S
LOS ANGELES CA CLOUDY    69  62  78 CALM      29.96F
BOISE ID       PTCLDY    68  37  32 SE9       29.76R
SEATTLE WA     CLOUDY    57  54  88 S13       29.81S
$$

*** WEATHER ACROSS MANITOBA...SASKATCHEWAN AND ONTARIO ***
                ***ONTARIO***

CITY           SKY/WX    TMP DP  RH WIND       PRES   REMARKS
GERALDTON      PTCLDY    57  55  94 W5        29.94R
THUNDER BAY    PTCLDY    54  54 100 W3        29.94S
SIOUX LOOKOUT  CLEAR     54  54 100 S3        29.93S
TORONTO        PTCLDY    68  63  83 CALM      30.02S
BIG TROUT LK   CLEAR     52  50  93 E6        29.88S
PICKLE LAKE    NOT AVBL
DRYDEN         CLEAR     61  54  77 S6        29.93R
KENORA         CLEAR     63  55  77 S7        29.90R
$$
                *** MANITOBA***

CITY           SKY/WX    TMP DP  RH WIND       PRES   REMARKS
BRANDON        CLEAR     59  55  88 E6        29.77S
DAUPHIN        CLEAR     63  57  82 W9        29.74R
ISLAND LAKE    PTCLDY    59  57  94 SE3       29.79
PILOT MOUND      N/A     63  59  88 S8          N/A
THE PAS        CLEAR     61  52  72 NW8       29.73R
THOMPSON       NOT AVBL
WINNIPEG       CLEAR     64  55  72 S12       29.80S
LYNN LAKE      CLEAR     55  52  88 NW7       29.71R
CHURCHILL      CLOUDY    46  46 100 S12       29.88R FOG
$$
                ***SASKATCHEWAN***

CITY           SKY/WX    TMP DP  RH WIND       PRES   REMARKS
ESTEVAN        PTCLDY    55  46  71 E8        29.78S
KINDERSLEY     MOCLDY    57  41  54 SE13G20   29.65F
LLOYDMINSTER   MOCLDY    52  43  71 E10       29.68F
PRINCE ALBERT  PTCLDY    45  41  87 N3        29.74S
REGINA         CLEAR     50  45  81 SE8       29.76F
YORKTON        CLEAR     48  45  87 VRB2      29.77R
N. BATTLEFORD  PTCLDY    52  43  71 SE12      29.70S
LA RONGE       PTCLDY    45  41  87 CALM      29.77R
SASKATOON      PTCLDY    57  45  62 E12       29.72F
SWIFT CURRENT  CLEAR     59  41  51 S14       29.72R
$$
NOTE: THESE ARE AUTOMATED STATIONS WITH LIMITED QUALITY CONTROL
      "FAIR" INDICATES FEW OR NO CLOUDS BELOW 12,000 FEET WITH NO
      SIGNIFICANT WEATHER AND/OR OBSTRUCTIONS TO VISIBILITY.
      SKY/WX - SKY CONDITION AND SIGNIFICANT WEATHER.
      TMP - AIR TEMPERATURE.    DP   - DEWPOINT TEMPERATURE.
      RH  - RELATIVE HUMIDITY.  PRES - PRESSURE.
      HX  - HEAT INDEX.         WCI  - WIND CHILL INDEX.
$



USA.gov is the U.S. government's official web portal to all federal, state and local government web resources and services.